Flag for Germany Weather past 2 weeks in Norderstedt, Schleswig-Holstein, Germany

Now
57 °F

Clear.


Feels Like: 56 °F
Forecast: 56 / 72 °F
Wind: 7 mph from East

Location: Hamburg-Fuhlsbuettel

Current Time: Sep 17, 2014 at 6:06:54 AM

Latest Report: Sep 17, 2014 at 5:20 AM


Visibility: 10 mi

Pressure: 30.04 "Hg

Humidity: 94%

Dew point: 55 °F

Location of NorderstedtLocation

Historic Weather in Norderstedt — Graph

°F

Norderstedt temperature yesterday

Maximum temperature yesterday: 75 °F (at 2:50 PM)
Minimum temperature yesterday: 55 °F (at 6:20 AM)
Average temperature yesterday: 66 °F

Past Weeks' High & Low Weather Summary

 TemperatureHumidityPressure
High79 °F (Sep 5, 3:50 PM)100% (Sep 2, 5:20 AM)30.33 "Hg (Sep 2, 5:20 AM)
Low48 °F (Sep 3, 6:50 AM)44% (Sep 4, 4:20 PM)29.86 "Hg (Sep 6, 2:50 PM)
Average62 °F83%30.09 "Hg
* Reported Sep 2 4:20 AM — Sep 17 4:50 AM, Norderstedt, Weather by CustomWeather, © 2014

Note: Actual official high and low records may vary slightly from our data, if they occured in-between our weather recording intervals... More about our weather records

Advertising

Norderstedt weather history for previous 24 hours

 ConditionsComfort  
Time TempWeatherWind HumidityBarometerVisibility
4:50 AM
Sep 17
57 °FClear.6 mph94%30.07 "Hg10 mi
4:20 AM57 °FClear.6 mph88%30.07 "Hg10 mi
3:50 AM57 °FClear.7 mph94%30.07 "Hg10 mi
3:20 AM59 °FClear.5 mph88%30.07 "Hg10 mi
2:50 AM59 °FClear.6 mph88%30.07 "Hg10 mi
2:20 AM61 °FClear.6 mph83%30.07 "Hg10 mi
1:50 AM63 °FClear.8 mph83%30.07 "Hg10 mi
1:20 AM63 °FClear.8 mph83%30.07 "Hg10 mi
12:20 AM63 °FClear.9 mph83%30.07 "Hg10 mi
11:50 PM
Sep 16
64 °FClear.10 mph78%30.07 "Hg10 mi
11:20 PM64 °FClear.9 mph78%30.07 "Hg10 mi
10:50 PM66 °FClear.9 mph73%30.07 "Hg10 mi
10:20 PM66 °FClear.10 mph78%30.07 "Hg10 mi
9:50 PM66 °FClear.9 mph78%30.07 "Hg10 mi
9:20 PM68 °FClear.12 mph73%30.07 "Hg10 mi
8:50 PM68 °FPassing clouds.10 mph73%30.07 "HgN/A
8:20 PM68 °FScattered clouds.7 mph73%30.07 "HgN/A
7:50 PM70 °FPartly sunny.7 mph69%30.04 "HgN/A
7:20 PM72 °FPassing clouds.6 mph65%30.04 "HgN/A
6:50 PM73 °FPassing clouds.8 mph65%30.04 "HgN/A
6:20 PM73 °FScattered clouds.8 mph65%30.04 "HgN/A
5:50 PM73 °FScattered clouds.10 mph65%30.04 "HgN/A
5:20 PM73 °FScattered clouds.14 mph65%30.04 "HgN/A
4:50 PM75 °FScattered clouds.9 mph61%30.04 "HgN/A
4:20 PM75 °FPassing clouds.13 mph61%30.04 "HgN/A
3:50 PM75 °FPassing clouds.12 mph61%30.04 "HgN/A
3:20 PM73 °FScattered clouds.14 mph65%30.07 "HgN/A
2:50 PM75 °FPassing clouds.13 mph61%30.07 "HgN/A
2:20 PM73 °FPassing clouds.12 mph65%30.07 "HgN/A
1:50 PM73 °FPassing clouds.13 mph65%30.07 "HgN/A
1:20 PM72 °FPassing clouds.12 mph69%30.07 "HgN/A
12:50 PM72 °FPassing clouds.15 mph65%30.09 "HgN/A
12:20 PM70 °FPassing clouds.14 mph69%30.09 "HgN/A
11:50 AM68 °FPassing clouds.14 mph73%30.09 "HgN/A
11:20 AM68 °FSunny.10 mph73%30.09 "Hg10 mi
10:50 AM66 °FPassing clouds.10 mph78%30.09 "HgN/A
10:20 AM64 °FSunny.10 mph78%30.09 "Hg10 mi
9:50 AM64 °FSunny.9 mph83%30.09 "Hg10 mi
9:20 AM63 °FSunny.8 mph88%30.09 "Hg10 mi
8:50 AM61 °FSunny.7 mph88%30.09 "Hg10 mi
8:20 AM59 °FSunny.6 mph88%30.09 "Hg10 mi
7:50 AM55 °FClear.5 mph100%30.09 "Hg10 mi
7:20 AM55 °FClear.6 mph94%30.09 "Hg10 mi
6:50 AM55 °FClear.5 mph100%30.09 "Hg10 mi
6:20 AM55 °FClear.5 mph100%30.09 "Hg10 mi
Weather by CustomWeather, © 2014

See weather overviewHow to use our weather pages